Regional Weather Roundup
Issued by NWS

Home | Current Version | Previous Version | Text Only | Print | Product List | Glossary Off
Versions: 1 2 3 4 5 6 7 8 9 10 11 12 13 14 15 16 17 18 19 20 21 22 23 24 25 26 27 28 29 30 31 32 33 34 35 36 37 38 39 40 41 42 43 44 45 46 47 48 49 50

000
ASUS45 KCYS 260210
RWRWY

WYOMING REGIONAL WEATHER ROUNDUP
NATIONAL WEATHER SERVICE CHEYENNE WY
700 PM MST TUE NOV 25 2014

NOTE:  "FAIR" INDICATES FEW OR NO CLOUDS BELOW 12,000 FEET
WITH NO SIGNIFICANT WEATHER AND/OR OBSTRUCTIONS TO VISIBILITY.

WYZ001-260300-
YELLOWSTONE NATIONAL PARK

CITY           SKY/WX    TMP DP  RH WIND       PRES   REMARKS
LK YELLOWSTONE   N/A     30  27  88 VRB5      30.05R WCI  25
W YELLOWSTONE  NOT AVBL

$$
WYZ002>013-054>058-071-098>099-260300-
NORTHERN WYOMING

CITY           SKY/WX    TMP DP  RH WIND       PRES   REMARKS
JACKSON        LGT SNOW  34  34 100 CALM      30.04S
CODY           CLOUDY    27  23  86 N12       30.10R WCI  16
GREYBULL       MIX PCPN  31  25  78 NW30G38   30.09R WCI  16
WORLAND        LGT SNOW  29  27  92 NW13      30.10R VSB 3/4 WCI  19
SHERIDAN       CLOUDY    31  23  72 NW25G36   30.07S WCI  17
BUFFALO        LGT SNOW  28  22  78 NW35G44   30.05R WCI  11
GILLETTE       CLOUDY    28  24  85 NW25G35   29.99R WCI  13
HULETT           N/A    N/A N/A N/A MISG        N/A
NEWCASTLE      FAIR      30  25  80 NW25G33   29.95R WCI  16

$$
WYZ014>020-022>026-101>103-260300-
CENTRAL WYOMING

CITY           SKY/WX    TMP DP  RH WIND       PRES   REMARKS
BIG PINEY      CLOUDY   N/A N/A N/A CALM      30.08R
PINEDALE       LGT SNOW  30  30 100 W3        30.08S
DUBOIS         LGT SNOW  32  30  93 NW15      29.97S WCI  22
LANDER         CLOUDY    32  24  72 NW3       30.01R
RIVERTON       CLOUDY    32  24  72 NE5       30.02R WCI  27
CASPER         LGT SNOW  26  21  81 N18G31    30.06R WCI  13
DOUGLAS        LGT SNOW N/A N/A N/A NW16      30.03R

$$
WYZ021-027>030-104>119-260300-
SOUTHERN WYOMING

CITY           SKY/WX    TMP DP  RH WIND       PRES   REMARKS
EVANSTON       CLOUDY    32  31  96 SW23G29   30.23R WCI  19
FORT BRIDGER   CLOUDY    36  32  88 W24G33    30.21F WCI  24
ROCK SPRINGS   CLOUDY    34  28  79 W30G36    30.09S WCI  20
DIXON          CLOUDY    35  23  63 SW17G28   30.14F WCI  24
RAWLINS        CLEAR     34  27  75 W25G44    30.00R WCI  21
SARATOGA       MOCLDY    36  28  75 W25G39    30.04R WCI  23
LARAMIE        CLOUDY    33  25  72 W26G38    29.93R WCI  20
CHEYENNE       LGT SNOW  29  26  89 NE16G25   29.94R VSB 3/4 WCI  17
TORRINGTON     CLOUDY    33  30  88 NW18      29.96R WCI  22
PINE BLUFFS    FLURRIES  32  28  86 N18G29    29.97R WCI  20

$$


USA.gov is the U.S. government's official web portal to all federal, state and local government web resources and services.